Weather History for Anniston, AL

Change the Weather History Date:

Saturday, December 29, 2012

  Actual Average Record
Temperature  
Mean Temperature 38 °F 44 °F  
Max Temperature 43 °F 54 °F 74 °F (1984)
Min Temperature 32 °F 34 °F 16 °F (1952)
Degree Days  
Heating Degree Days 27    
Month to date heating degree days 402  
Since 1 July heating degree days 994  
Moisture  
Dew Point 34 °F    
Average Humidity 80    
Maximum Humidity 96    
Minimum Humidity 64    
Precipitation  
Precipitation 0.03 in 0.12 in 1.58 in (1970)
Month to date precipitation 5.81 3.88  
Year to date precipitation 45.27 49.43  
Sea Level Pressure  
Sea Level Pressure 30.03 in    
Wind  
Wind Speed 9 mph (West)    
Max Wind Speed 18 mph    
Max Gust Speed 29 mph    
Visibility 8 miles    
Events Rain    
T = Trace of Precipitation, MM = Missing Value Source: NWS Daily Summary

Daily Weather History Graph

Daily Weather History Graph

Search for Another Location

Airport:

Trip Planner

Search our weather history database for the weather conditions in past years. The results will help you decide how hot, cold, wet, or windy it might be!

Date:

Astronomy

Dec. 29, 2012 Rise Set
Actual Time 6:47 AM CST 4:44 PM CST
Civil Twilight 6:19 AM CST 5:11 PM CST
Nautical Twilight 5:48 AM CST 5:43 PM CST
Astronomical Twilight 5:18 AM CST 6:13 PM CST
Moon 6:11 PM CST (12/29) 7:24 AM CST (12/29)
Length of Visible Light 10h 52m
Length of Day
9h 57m
Full, 98% of the Moon is Illuminated
Dec 29
Full
Jan 4
Last Quarter
Jan 11
New
Jan 18
First Quarter
Jan 26
Full

Hourly Weather History & Observations

Time (CST) Temp. Windchill Dew Point Humidity Pressure Visibility Wind Dir Wind Speed Gust Speed Precip Events Conditions
12:53 AM 42.1 °F 38.4 °F 39.9 °F 92% 29.81 in 9.0 mi ENE 5.8 mph - 0.01 in   Overcast
1:44 AM 42.8 °F 41.1 °F 41.0 °F 93% 29.83 in 3.0 mi NNW 3.5 mph - 0.00 in Rain Light Rain
1:49 AM 42.8 °F 41.1 °F 41.0 °F 93% 29.83 in 2.5 mi Variable 3.5 mph - 0.00 in Rain Light Rain
1:53 AM 42.1 °F 39.2 °F 41.0 °F 96% 29.85 in 2.5 mi NW 4.6 mph - 0.00 in   Overcast
2:17 AM 42.8 °F 39.3 °F 41.0 °F 93% 29.85 in 3.0 mi West 5.8 mph - 0.01 in   Overcast
2:43 AM 42.8 °F 40.1 °F 41.0 °F 93% 29.85 in 6.0 mi West 4.6 mph - 0.01 in   Overcast
2:53 AM 42.1 °F - 41.0 °F 96% 29.87 in 10.0 mi Calm Calm - 0.01 in   Overcast
3:13 AM 42.8 °F - 41.0 °F 93% 29.85 in 10.0 mi Calm Calm - N/A   Overcast
3:53 AM 42.1 °F - 41.0 °F 96% 29.86 in 10.0 mi Calm Calm - N/A   Overcast
4:08 AM 42.8 °F 39.3 °F 41.0 °F 93% 29.85 in 8.0 mi WSW 5.8 mph - N/A   Overcast
4:20 AM 42.8 °F 38.6 °F 41.0 °F 93% 29.86 in 2.5 mi WSW 6.9 mph - 0.01 in   Overcast
4:37 AM 42.8 °F 38.6 °F 41.0 °F 93% 29.86 in 3.0 mi WSW 6.9 mph - 0.01 in   Overcast
4:53 AM 42.1 °F 37.1 °F 41.0 °F 96% 29.87 in 4.0 mi WSW 8.1 mph - 0.01 in   Overcast
5:17 AM 42.8 °F 37.0 °F 41.0 °F 93% 29.89 in 8.0 mi WSW 10.4 mph - N/A   Overcast
5:49 AM 42.8 °F 35.8 °F 39.2 °F 87% 29.92 in 10.0 mi West 13.8 mph - N/A   Overcast
5:53 AM 43.0 °F 35.7 °F 39.9 °F 89% 29.94 in 10.0 mi West 15.0 mph - N/A   Overcast
6:53 AM 41.0 °F 34.7 °F 37.9 °F 89% 29.99 in 10.0 mi West 10.4 mph 17.3 mph N/A   Overcast
7:53 AM 39.9 °F 33.9 °F 36.0 °F 86% 30.01 in 10.0 mi West 9.2 mph 21.9 mph N/A   Overcast
8:08 AM 39.2 °F 34.2 °F 35.6 °F 87% 30.00 in 10.0 mi WNW 6.9 mph 17.3 mph N/A   Overcast
8:53 AM 39.0 °F 32.8 °F 34.0 °F 82% 30.06 in 10.0 mi West 9.2 mph 17.3 mph N/A   Overcast
9:26 AM 39.2 °F 33.0 °F 33.8 °F 81% 30.06 in 10.0 mi West 9.2 mph - N/A   Overcast
9:53 AM 39.0 °F 32.8 °F 33.1 °F 79% 30.09 in 10.0 mi West 9.2 mph - N/A   Overcast
10:53 AM 39.0 °F 34.0 °F 32.0 °F 76% 30.09 in 10.0 mi Variable 6.9 mph 21.9 mph N/A   Overcast
11:53 AM 39.0 °F 31.8 °F 30.9 °F 73% 30.09 in 10.0 mi West 11.5 mph 20.7 mph N/A   Overcast
12:53 PM 37.9 °F 31.5 °F 30.0 °F 73% 30.09 in 9.0 mi WNW 9.2 mph 21.9 mph N/A   Overcast
1:53 PM 37.9 °F 32.7 °F 30.0 °F 73% 30.11 in 9.0 mi West 6.9 mph - N/A   Overcast
2:29 PM 37.4 °F 29.3 °F 28.4 °F 70% 30.10 in 10.0 mi West 12.7 mph 19.6 mph N/A   Overcast
2:53 PM 37.0 °F 28.5 °F 28.9 °F 73% 30.14 in 10.0 mi WNW 13.8 mph 18.4 mph N/A   Overcast
3:17 PM 37.4 °F 29.8 °F 28.4 °F 70% 30.13 in 10.0 mi West 11.5 mph - N/A   Overcast
3:53 PM 37.0 °F 28.1 °F 27.0 °F 67% 30.17 in 10.0 mi WNW 15.0 mph 24.2 mph N/A   Overcast
4:53 PM 36.0 °F 29.0 °F 27.0 °F 70% 30.20 in 10.0 mi WNW 9.2 mph 17.3 mph N/A   Overcast
5:53 PM 36.0 °F 29.0 °F 26.1 °F 67% 30.23 in 10.0 mi West 9.2 mph - N/A   Overcast
7:53 PM 35.1 °F 27.4 °F 25.0 °F 67% 30.30 in 10.0 mi WNW 10.4 mph - N/A   Overcast
8:53 PM 34.0 °F 26.6 °F 25.0 °F 70% 30.32 in 10.0 mi WNW 9.2 mph 17.3 mph N/A   Overcast
9:53 PM 34.0 °F 26.0 °F 24.1 °F 67% 30.35 in 10.0 mi West 10.4 mph - N/A   Overcast
10:53 PM 33.1 °F 25.5 °F 23.0 °F 66% 30.36 in 10.0 mi WNW 9.2 mph - N/A   Overcast
11:53 PM 32.0 °F 25.6 °F 21.9 °F 66% 30.37 in 10.0 mi WNW 6.9 mph - N/A   Clear